Home   Weather   France   Paris   Past weeks
Flag for France

Past Weather in Paris, Paris, France — November 2019

Currently: 68 °F. Passing clouds. (Weather station: Villacoublay, France). See more current weather

November 2019 Weather in Paris — Graph

°F

High & Low Weather Summary for November 2019

 TemperatureHumidityPressure
High61 °F (Nov 1, 4:00 pm)100% (Nov 1, 3:00 am)30.15 "Hg (Nov 1, 3:00 am)
Low30 °F (Nov 20, 6:00 am)50% (Nov 19, 2:30 pm)28.94 "Hg (Nov 3, 6:30 am)
Average45 °F90%29.62 "Hg
* Reported Nov 1 12:00 am — Nov 30 11:30 pm, Paris. Weather by CustomWeather, © 2024

Note: Actual official high and low records may vary slightly from our data, if they occured in-between our weather recording intervals... More about our weather records

Paris Weather History for November 1, 2019

Scroll right to see more
 ConditionsComfort  
Time TempWeatherWind HumidityBarometerVisibility
12:00 am
Fri, Nov 1
50 °FOvercast.2 mph94%30.01 "Hg4 mi
12:30 am50 °FFog.2 mph94%29.98 "Hg3 mi
1:00 am50 °FFog.2 mph94%29.98 "Hg3 mi
1:30 am50 °FFog.2 mph94%29.98 "Hg3 mi
2:00 am50 °FFog.3 mph94%29.95 "Hg3 mi
2:30 am50 °FFog.3 mph94%29.95 "Hg3 mi
3:00 am50 °FFog.6 mph100%29.95 "Hg3 mi
3:30 am50 °FFog.5 mph100%29.92 "Hg3 mi
4:00 am50 °FLow clouds.7 mph100%29.92 "Hg4 mi
4:30 am50 °FLow clouds.6 mph100%29.92 "Hg4 mi
5:00 am50 °FDrizzle. Low clouds.5 mph100%29.92 "Hg4 mi
5:30 am52 °FFog.6 mph94%29.89 "Hg3 mi
6:00 am52 °FRain. Fog.6 mph94%29.89 "Hg2 mi
6:30 am52 °FLight rain. Low clouds.8 mph100%29.86 "Hg4 mi
7:00 am52 °FRain. Low clouds.9 mph100%29.86 "Hg4 mi
7:30 am52 °FRain. Low clouds.8 mph100%29.83 "Hg4 mi
8:00 am52 °FRain. Fog.10 mph100%29.80 "Hg3 mi
8:30 am54 °FLight rain. Low clouds.12 mph94%29.80 "Hg6 mi
9:00 am54 °FLight rain. Low clouds.10 mph94%29.80 "Hg4 mi
9:30 am54 °FLight rain. Low clouds.12 mph100%29.77 "HgN/A
10:00 am54 °FLight rain. Fog.13 mph100%29.74 "Hg2 mi
10:30 am54 °FLight rain. Fog.14 mph100%29.74 "Hg2 mi
11:00 am54 °FDrizzle. Low clouds.14 mph100%29.71 "Hg5 mi
11:30 am54 °FDrizzle. Low clouds.10 mph100%29.71 "HgN/A
12:00 pm55 °FDrizzle. Fog.12 mph94%29.68 "Hg2 mi
12:30 pm55 °FDrizzle. Fog.10 mph100%29.68 "Hg2 mi
1:00 pm55 °FDrizzle. Fog.9 mph100%29.65 "Hg2 mi
1:30 pm57 °FDrizzle. Fog.8 mph100%29.65 "Hg3 mi
2:00 pm57 °FDrizzle. Fog.8 mph100%29.62 "Hg3 mi
2:30 pm57 °FFog.9 mph100%29.62 "Hg3 mi
3:00 pm59 °FLow clouds.8 mph94%29.62 "Hg4 mi
3:30 pm59 °FLow clouds.10 mph100%29.59 "HgN/A
4:00 pm61 °FLow clouds.9 mph94%29.56 "HgN/A
4:30 pm61 °FLow clouds.12 mph94%29.56 "HgN/A
5:00 pm61 °FLow clouds.12 mph94%29.56 "HgN/A
5:30 pm61 °FMostly cloudy.12 mph94%29.56 "HgN/A
6:00 pm61 °FMostly cloudy.8 mph94%29.56 "HgN/A
6:30 pm61 °FMostly cloudy.9 mph94%29.53 "HgN/A
7:00 pm61 °FLow clouds.9 mph94%29.53 "HgN/A
7:30 pm61 °FLow clouds.10 mph94%29.50 "HgN/A
8:00 pm61 °FDrizzle. Fog.12 mph94%29.50 "Hg3 mi
8:30 pm61 °FLow clouds.10 mph94%29.50 "HgN/A
9:00 pm61 °FMostly cloudy.10 mph94%29.47 "HgN/A
9:30 pm61 °FLow clouds.13 mph94%29.47 "HgN/A
10:00 pm61 °FMostly cloudy.13 mph94%29.47 "HgN/A
10:30 pm61 °FLow clouds.13 mph94%29.47 "HgN/A
11:00 pm61 °FMostly cloudy.13 mph88%29.45 "HgN/A
Weather by CustomWeather, © 2024

See weather overview